Tracking 17154 objects as of 2-August-2015
HD Live streaming from Space Station

NSS 12

Track NSS 12 now!
NSS 12 is classified as:


NORAD ID: 36032
Int'l Code: 2009-058A
Perigee: 35,781.5 km
Apogee: 35,805.6 km
Inclination: 0.1 °
Period: 1,436.1 minutes
Semi major axis: 42164 km
RCS: 7.0794 m2 (large)
Launch date: October 29, 2009
Source: SOCIETE EUROPEENNE DES SATELLITES (SES)

NSS 12 was manufactured by Space Systems/Loral and has a 15-year design life the 12,400-pound (5,625-kg). The satellite carries 48 Ku-band and 40 C-band transponders. It will be parked in geostationary orbit over the equator at 57 degrees East longitude to take the place of the aging NSS 703 satellite, which was launched aboard an Atlas 2AS rocket from Cape Canaveral in 1994.
Your satellite tracking list
Your tracking list is empty





NASA's NSSDC Master Catalog

Two Line Element Set (TLE):
1 36032U 09058A   15212.93874728  .00000057  00000-0  00000+0 0  9996
2 36032 000.0549 271.5085 0002862 209.8595 222.7978 01.00272516 21103

Source of the keplerian elements: AFSPC

N2YO: 372